(51516) = 1998 QE80 = 2001 FG101

Discovered at Socorro on 2001-03-17 by LINEAR.

Orbit

Orbit type: Main Belt

Note: WebGL enabled browser required.

epoch2023-09-13.0
epoch JD2460200.5
perihelion date2020-05-19.36980
perihelion JD2458988.86980
argument of perihelion (°)344.25709
ascending node (°)297.65248
inclination (°)10.24385
eccentricity0.2536811
perihelion distance (AU)1.7755994
Tisserand w.r.t. Jupiter3.5
ΔV w.r.t. Earth (km/sec)8.8
semimajor axis (AU)2.3791431
mean anomaly (°)325.41913
mean daily motion (°/day)0.26857960
aphelion distance (AU)2.983
period (years)3.67
P-vector [x]0.21019849
P-vector [y]-0.87669800
P-vector [z]-0.43268604
Q-vector [x]0.96488468
Q-vector [y]0.11471930
Q-vector [z]0.23629862
absolute magnitude14.78
phase slope0.15
uncertainty0
referenceMPEC 2024-A48
observations used1838
oppositions19
arc length (days)9114
first opposition used1998
last opposition used2023
residual rms (arc-secs)0.61
perturbers coarse indicatorM-v
perturbers precise indicator003Ek
first observation date used1998-07-03.0
last observation date used2023-06-16.0
computer nameMPCLINUX
JD of orbit computation2456966.817405
perihelion JD uncertainty (days)4.4903E-05
argument of perihelion uncertainty (°)2.6152E-05
ascending node uncertainty (°)2.4339E-05
inclination uncertainty (°)5.0014E-06
eccentricity uncertainty 3.9344E-08
perihelion distance uncertainty (AU)9.2790E-08
Minimum Orbit Intersection Distances (in AU)
for orbit epoch: 2460200.5, reference: E2024-A48
Mercury1.31645
Venus1.04824
Earth0.76084
Mars0.34074
Jupiter2.19083
Saturn6.08756
Uranus15.6996
Neptune27.096

Observations

1861 total observations over interval: 1998 07 03.40387 – 2023 06 16.003628
These data are available for download (format description).

Date (UT) J2000 RA J2000 Dec Magn Location Ref
1998 07 03.40387 21 49 44.39 -11 28 48.1 16.8 R 699 – Lowell Observatory-LONEOS MPS 27426
1998 07 03.41877 21 49 44.20 -11 28 39.2   699 – Lowell Observatory-LONEOS MPS 27426
1998 07 03.43368 21 49 44.05 -11 28 30.2   699 – Lowell Observatory-LONEOS MPS 27426
1998 08 17.24437 21 14 54.75 -06 18 58.8 16.2   704 – Lincoln Laboratory ETS, New Mexico MPS 27426
1998 08 17.26526 21 14 53.50 -06 18 55.2   704 – Lincoln Laboratory ETS, New Mexico MPS 27426
1998 08 17.28628 21 14 52.14 -06 18 50.7   704 – Lincoln Laboratory ETS, New Mexico MPS 27426
1998 08 17.30723 21 14 50.86 -06 18 46.2   704 – Lincoln Laboratory ETS, New Mexico MPS 27426
1998 08 17.32822 21 14 49.50 -06 18 41.4   704 – Lincoln Laboratory ETS, New Mexico MPS 27426
1998 08 24.21811 21 08 29.62 -05 58 31.3 17.9   704 – Lincoln Laboratory ETS, New Mexico MPS 2078
1998 08 24.23447 21 08 28.78 -05 58 28.9   704 – Lincoln Laboratory ETS, New Mexico MPS 2078
1998 08 24.25092 21 08 27.92 -05 58 26.8 18.4   704 – Lincoln Laboratory ETS, New Mexico MPS 2078
1998 08 24.28379 21 08 26.08 -05 58 20.6   704 – Lincoln Laboratory ETS, New Mexico MPS 2078
1998 08 27.21011 21 06 06.10 -05 51 29.2 17.8   704 – Lincoln Laboratory ETS, New Mexico MPS 2078
1998 08 27.22767 21 06 05.19 -05 51 26.4   704 – Lincoln Laboratory ETS, New Mexico MPS 2078
1998 08 27.24522 21 06 04.33 -05 51 24.7   704 – Lincoln Laboratory ETS, New Mexico MPS 2078
1998 08 27.26279 21 06 03.49 -05 51 22.3   704 – Lincoln Laboratory ETS, New Mexico MPS 2078
1998 08 27.28040 21 06 02.61 -05 51 19.9   704 – Lincoln Laboratory ETS, New Mexico MPS 2078
1999 12 15.23992 05 52 54.77 +31 27 54.2 18.8   704 – Lincoln Laboratory ETS, New Mexico MPS 28453
1999 12 15.25940 05 52 53.27 +31 27 51.8 19.4   704 – Lincoln Laboratory ETS, New Mexico MPS 28453
1999 12 15.27880 05 52 51.91 +31 27 49.1 18.9   704 – Lincoln Laboratory ETS, New Mexico MPS 28453
2000 01 02.25071 05 31 56.97 +30 30 37.1 19.0   704 – Lincoln Laboratory ETS, New Mexico MPS 28453
2000 01 02.27411 05 31 55.48 +30 30 30.8 19.7   704 – Lincoln Laboratory ETS, New Mexico MPS 28453
2000 01 02.29481 05 31 54.14 +30 30 26.3 19.6   704 – Lincoln Laboratory ETS, New Mexico MPS 28453
2001 01 30.54932 11 25 33.75 -07 04 57.7 19.1   608 – Haleakala-AMOS MPS 28453
2001 01 30.55980 11 25 33.45 -07 04 59.8 19.1   608 – Haleakala-AMOS MPS 28453
2001 01 30.57026 11 25 33.14 -07 05 02.4 18.9   608 – Haleakala-AMOS MPS 28453
2001 02 22.32041 11 09 16.59 -07 42 50.1 18.2   704 – Lincoln Laboratory ETS, New Mexico MPS 28453
2001 02 22.33414 11 09 15.77 -07 42 49.0 18.7   704 – Lincoln Laboratory ETS, New Mexico MPS 28453
2001 02 22.34818 11 09 14.93 -07 42 47.7 19.0   704 – Lincoln Laboratory ETS, New Mexico MPS 28453
2001 02 22.36337 11 09 14.06 -07 42 49.0 18.2   704 – Lincoln Laboratory ETS, New Mexico MPS 28453
2001 02 22.37745 11 09 13.16 -07 42 48.1 18.2   704 – Lincoln Laboratory ETS, New Mexico MPS 28453
2001 03 17.31062 10 44 59.78 -06 41 11.1 18.0   704 – Lincoln Laboratory ETS, New Mexico MPS 28453
2001 03 17.32476 10 44 58.89 -06 41 07.4 18.8   704 – Lincoln Laboratory ETS, New Mexico MPS 28453
2001 03 17.33775 10 44 58.03 -06 41 04.2 18.9   704 – Lincoln Laboratory ETS, New Mexico MPS 28453
2001 03 20.35335 10 41 54.24 -06 27 34.2 18.4   608 – Haleakala-AMOS MPS 28453
2001 03 20.36403 10 41 53.59 -06 27 31.0 18.3   608 – Haleakala-AMOS MPS 28453
2001 03 20.37414 10 41 52.94 -06 27 28.1 18.3   608 – Haleakala-AMOS MPS 28453
2001 03 21.22523 10 41 02.57 -06 23 31.0 18.0 R 699 – Lowell Observatory-LONEOS MPS 28453
2001 03 21.24855 10 41 01.11 -06 23 24.3   699 – Lowell Observatory-LONEOS MPS 28453
2001 03 21.27192 10 40 59.70 -06 23 18.2   699 – Lowell Observatory-LONEOS MPS 28453
2001 03 21.29535 10 40 58.28 -06 23 10.9   699 – Lowell Observatory-LONEOS MPS 28453
2001 03 26.24416 10 36 20.18 -05 59 22.7 18.6   704 – Lincoln Laboratory ETS, New Mexico MPS 28453
2001 03 26.25682 10 36 19.46 -05 59 19.2 19.0   704 – Lincoln Laboratory ETS, New Mexico MPS 28453
2001 03 26.26915 10 36 18.80 -05 59 15.7 18.8   704 – Lincoln Laboratory ETS, New Mexico MPS 28453
2001 03 26.28231 10 36 18.08 -05 59 11.1 19.0   704 – Lincoln Laboratory ETS, New Mexico MPS 28453
2001 03 26.29505 10 36 17.39 -05 59 07.7 19.3   704 – Lincoln Laboratory ETS, New Mexico MPS 28453
2001 04 16.20577 10 23 30.72 -04 21 34.7 18.7   704 – Lincoln Laboratory ETS, New Mexico MPS 29591
2001 04 16.22048 10 23 30.53 -04 21 31.8 19.0   704 – Lincoln Laboratory ETS, New Mexico MPS 29591
2001 04 16.23386 10 23 30.20 -04 21 28.1 19.0   704 – Lincoln Laboratory ETS, New Mexico MPS 29591
2001 04 16.24786 10 23 29.94 -04 21 23.9 19.0   704 – Lincoln Laboratory ETS, New Mexico MPS 29591
2001 04 16.26100 10 23 29.58 -04 21 21.8 19.1   704 – Lincoln Laboratory ETS, New Mexico MPS 29591
2001 05 16.24655 10 28 11.21 -03 22 09.1 20.2   608 – Haleakala-AMOS MPS 30849
2001 05 16.25729 10 28 11.54 -03 22 08.3 20.1   608 – Haleakala-AMOS MPS 30849
2001 05 16.26836 10 28 11.94 -03 22 09.2 20.5   608 – Haleakala-AMOS MPS 30849
2002 07 18.36480 01 24 07.20 +19 40 10.3 18.9   704 – Lincoln Laboratory ETS, New Mexico MPS 63129
2002 07 18.37796 01 24 07.96 +19 40 19.8 19.0   704 – Lincoln Laboratory ETS, New Mexico MPS 63129
2002 07 18.40428 01 24 09.60 +19 40 38.9 19.5   704 – Lincoln Laboratory ETS, New Mexico MPS 63129
2002 07 18.41740 01 24 10.39 +19 40 48.5 19.5   704 – Lincoln Laboratory ETS, New Mexico MPS 63129
2002 08 10.40237 01 41 53.05 +23 48 33.1 19.1   704 – Lincoln Laboratory ETS, New Mexico MPS 63129
2002 08 10.42562 01 41 53.63 +23 48 46.3 18.6   704 – Lincoln Laboratory ETS, New Mexico MPS 63129
2002 08 10.43717 01 41 53.93 +23 48 52.6 18.8   704 – Lincoln Laboratory ETS, New Mexico MPS 63129
2002 08 10.44871 01 41 54.25 +23 48 59.8 19.1   704 – Lincoln Laboratory ETS, New Mexico MPS 63129
2002 09 23.90741 01 31 37.31 +27 41 55.5 17.3 R 636 – Essen MPS 63129
2002 09 23.91134 01 31 37.10 +27 41 55.8 17.5 R 636 – Essen MPS 63129
2002 09 23.91529 01 31 36.87 +27 41 55.2 17.5 R 636 – Essen MPS 63129
2002 10 10.25422 01 14 34.07 +26 55 15.1 18.1   704 – Lincoln Laboratory ETS, New Mexico MPS 63129
2002 10 10.26975 01 14 33.01 +26 55 10.4 18.3   704 – Lincoln Laboratory ETS, New Mexico MPS 63129
2002 10 10.28627 01 14 31.84 +26 55 05.1 18.4   704 – Lincoln Laboratory ETS, New Mexico MPS 63129
2002 10 10.30181 01 14 30.79 +26 55 00.1 18.4   704 – Lincoln Laboratory ETS, New Mexico MPS 63129
2002 10 10.31765 01 14 29.69 +26 54 55.0 18.4   704 – Lincoln Laboratory ETS, New Mexico MPS 63129
2002 10 15.26844 01 09 02.95 +26 25 51.0 18.2   704 – Lincoln Laboratory ETS, New Mexico MPS 63129
2002 10 15.28413 01 09 01.95 +26 25 45.7 18.2   704 – Lincoln Laboratory ETS, New Mexico MPS 63129
2002 10 15.29976 01 09 00.93 +26 25 39.9 18.3   704 – Lincoln Laboratory ETS, New Mexico MPS 63129
2002 11 01.15691 00 52 54.30 +24 14 12.0 17.5   644 – Palomar Mountain/NEAT MPS 65741
2002 11 01.17886 00 52 53.23 +24 14 00.9 17.6   644 – Palomar Mountain/NEAT MPS 65741
2002 11 01.19971 00 52 52.23 +24 13 50.4 17.9   644 – Palomar Mountain/NEAT MPS 65741
2002 11 08.23122 00 48 07.99 +23 13 10.5 17.9   704 – Lincoln Laboratory ETS, New Mexico MPS 65741
2002 11 08.24788 00 48 07.39 +23 13 01.3 18.3   704 – Lincoln Laboratory ETS, New Mexico MPS 65741
2002 11 08.28148 00 48 06.18 +23 12 44.2 18.3   704 – Lincoln Laboratory ETS, New Mexico MPS 65741
2002 11 08.29839 00 48 05.55 +23 12 35.4 18.0   704 – Lincoln Laboratory ETS, New Mexico MPS 65741
2002 11 13.11413 00 45 43.84 +22 32 09.7 18.2   644 – Palomar Mountain/NEAT MPS 65741
2002 11 13.13525 00 45 43.27 +22 31 59.5 18.5   644 – Palomar Mountain/NEAT MPS 65741
2002 11 13.15620 00 45 42.71 +22 31 49.3 18.4   644 – Palomar Mountain/NEAT MPS 65741
2002 11 14.16619 00 45 18.44 +22 23 34.6 18.4   704 – Lincoln Laboratory ETS, New Mexico MPS 65741
2002 11 14.18353 00 45 17.98 +22 23 26.5 18.6   704 – Lincoln Laboratory ETS, New Mexico MPS 65741
2002 11 14.20088 00 45 17.54 +22 23 18.0 18.5   704 – Lincoln Laboratory ETS, New Mexico MPS 65741
2002 11 14.21832 00 45 17.10 +22 23 09.5 18.1   704 – Lincoln Laboratory ETS, New Mexico MPS 65741
